EW3721 Weather Reports


Display with metric or nautical units.
time (UTC)temp
F
wind
direction
speed
MPH
gust
MPH
rain 1hr
in
rain 24hr
in
rain mn
in
humidity
%
barometer
mb
20260509154607 61 183 1.0 3.0 0.00 0.00 0.00 76 1012.8
20260509153607 61 163 1.0 3.0 0.00 0.00 0.00 76 1012.9
20260509153107 60 162 2.0 5.0 0.00 0.00 0.00 77 1012.9
20260509152607 60 185 1.0 3.0 0.00 0.00 0.00 80 1013.0
20260509151107 59 174 2.0 6.0 0.00 0.00 0.00 79 1013.1
20260509150607 59 145 1.0 3.0 0.00 0.00 0.00 81 1013.0
20260509150107 59 155 1.0 5.0 0.00 0.00 0.00 81 1013.1
20260509145607 58 154 1.0 5.0 0.00 0.00 0.00 83 1013.3
20260509145107 58 197 1.0 5.0 0.00 0.00 0.00 82 1013.2
20260509144607 57 163 2.0 6.0 0.00 0.00 0.00 82 1012.8
20260509144106 57 228 1.0 3.0 0.00 0.00 0.00 83 1012.9
20260509143607 57 167 2.0 5.0 0.00 0.00 0.00 84 1012.9
20260509143107 57 203 1.0 3.0 0.00 0.00 0.00 84 1012.8
20260509142607 56 220 1.0 3.0 0.00 0.00 0.00 85 1013.0
20260509142107 56 142 1.0 2.0 0.00 0.00 0.00 87 1013.4
20260509141607 56 142 0.0 3.0 0.00 0.00 0.00 87 1013.3
20260509141107 55 146 3.0 5.0 0.00 0.00 0.00 86 1013.3
20260509140107 55 158 1.0 5.0 0.00 0.00 0.00 86 1013.1
20260509135607 54 162 3.0 6.0 0.00 0.00 0.00 87 1012.8
20260509135107 54 141 0.0 5.0 0.00 0.00 0.00 88 1012.8
20260509134607 54 156 2.0 3.0 0.00 0.00 0.00 88 1012.8
20260509134107 53 175 2.0 5.0 0.00 0.00 0.00 89 1013.0
20260509133607 53 147 1.0 3.0 0.00 0.00 0.00 89 1013.0
20260509133106 53 238 1.0 3.0 0.00 0.00 0.00 90 1013.1
20260509132607 52 142 1.0 3.0 0.00 0.00 0.00 89 1013.3
20260509132106 52 170 1.0 2.0 0.00 0.00 0.00 89 1013.4
20260509131607 52 170 1.0 3.0 0.00 0.00 0.00 89 1013.6
20260509131107 52 151 1.0 3.0 0.00 0.00 0.00 90 1013.7
20260509130607 51 139 1.0 3.0 0.00 0.00 0.00 90 1013.9
20260509130107 51 162 2.0 3.0 0.00 0.00 0.00 90 1013.9
20260509125107 51 157 1.0 2.0 0.00 0.00 0.00 91 1014.1
20260509124107 50 0 0.0 3.0 0.00 0.00 0.00 91 1013.9
20260509123107 50 158 5.0 8.0 0.00 0.00 0.00 91 1014.0
20260509122607 50 163 1.0 3.0 0.00 0.00 0.00 92 1014.1
20260509122107 50 157 0.0 5.0 0.00 0.00 0.00 92 1014.1
20260509121606 50 163 0.0 3.0 0.00 0.00 0.00 93 1013.9
20260509121107 49 161 2.0 7.0 0.00 0.00 0.00 93 1013.9
20260509120107 49 134 2.0 5.0 0.00 0.00 0.00 93 1014.2
20260509115606 49 154 1.0 3.0 0.00 0.00 0.00 94 1014.1
20260509115107 49 152 0.0 2.0 0.00 0.00 0.00 94 1014.1
20260509114607 49 152 2.0 3.0 0.00 0.00 0.00 94 1014.2
20260509114107 49 150 0.0 2.0 0.00 0.00 0.00 94 1014.3
20260509113606 49 342 1.0 3.0 0.00 0.00 0.00 94 1014.2
20260509113107 49 246 0.0 0.0 0.00 0.00 0.00 94 1014.1
20260509112607 49 247 0.0 1.0 0.00 0.00 0.00 94 1014.1
20260509112107 49 247 0.0 1.0 0.00 0.00 0.00 95 1014.1
20260509111607 49 246 0.0 1.0 0.00 0.00 0.00 95 1013.9
20260509110607 49 244 0.0 1.0 0.00 0.00 0.00 94 1013.9
20260509110107 49 244 0.0 2.0 0.00 0.00 0.00 94 1013.8
20260509105607 48 251 1.0 2.0 0.00 0.00 0.00 94 1013.7
20260509105107 48 143 0.0 1.0 0.00 0.00 0.00 94 1013.5
20260509104606 48 143 0.0 1.0 0.00 0.00 0.00 94 1013.6
20260509104109 48 143 1.0 3.0 0.00 0.00 0.00 94 1013.6
20260509103607 48 225 0.0 2.0 0.00 0.00 0.00 94 1013.5
20260509102107 48 225 0.0 1.0 0.00 0.00 0.00 94 1013.6
20260509101607 48 225 0.0 2.0 0.00 0.00 0.00 94 1013.7
20260509101107 48 225 0.0 1.0 0.00 0.00 0.00 93 1013.7
20260509100607 48 225 0.0 1.0 0.00 0.00 0.00 93 1013.7
20260509100107 48 225 0.0 0.0 0.00 0.00 0.00 93 1013.7
20260509095607 48 225 0.0 0.0 0.00 0.00 0.00 93 1013.6
20260509095107 48 225 0.0 1.0 0.00 0.00 0.00 93 1013.5
20260509094607 48 225 0.0 2.0 0.00 0.00 0.00 93 1013.6
20260509094107 48 225 0.0 1.0 0.00 0.00 0.00 93 1013.6
20260509093607 48 225 0.0 0.0 0.00 0.00 0.00 93 1013.6
20260509093107 48 225 0.0 0.0 0.00 0.00 0.00 93 1013.4
20260509092607 48 225 0.0 0.0 0.00 0.00 0.00 93 1013.5
20260509092107 48 225 0.0 1.0 0.00 0.00 0.00 93 1013.6
20260509091606 48 225 1.0 2.0 0.00 0.00 0.00 92 1013.7
20260509091107 48 225 0.0 1.0 0.00 0.00 0.00 92 1013.6
20260509090607 48 225 0.0 1.0 0.00 0.00 0.00 92 1013.7
20260509090106 48 225 0.0 0.0 0.00 0.00 0.00 92 1013.6
20260509085607 48 225 0.0 1.0 0.00 0.00 0.00 92 1013.7
20260509085107 48 225 0.0 1.0 0.00 0.00 0.00 92 1013.7
20260509084606 48 225 0.0 1.0 0.00 0.00 0.00 92 1013.7
20260509084107 48 225 0.0 1.0 0.00 0.00 0.00 92 1013.6
20260509083607 48 225 1.0 2.0 0.00 0.00 0.00 92 1013.6
20260509083107 48 225 0.0 1.0 0.00 0.00 0.00 91 1013.6
20260509081607 48 225 0.0 1.0 0.00 0.00 0.00 91 1013.6
20260509081106 48 225 1.0 2.0 0.00 0.00 0.00 91 1013.7
20260509080607 48 225 0.0 1.0 0.00 0.00 0.00 91 1013.8
20260509075607 48 225 0.0 0.0 0.00 0.00 0.00 90 1013.7
20260509075106 48 225 0.0 0.0 0.00 0.00 0.00 90 1013.6
20260509074607 48 225 0.0 0.0 0.00 0.00 0.00 90 1013.6
20260509074107 48 225 0.0 0.0 0.00 0.00 0.00 90 1013.6
20260509073607 48 225 0.0 0.0 0.00 0.00 0.00 90 1013.4
20260509073107 48 225 0.0 0.0 0.00 0.00 0.00 89 1013.3
20260509072107 48 225 0.0 0.0 0.00 0.00 0.00 89 1013.2
20260509071606 48 225 0.0 0.0 0.00 0.00 0.00 89 1013.2
20260509071106 48 225 0.0 0.0 0.00 0.00 0.00 89 1013.1
20260509070606 48 225 0.0 0.0 0.00 0.00 0.00 89 1013.2
20260509070107 48 225 0.0 0.0 0.00 0.00 0.00 89 1013.2
20260509065607 48 225 0.0 0.0 0.00 0.00 0.00 89 1013.2
20260509065106 48 225 0.0 0.0 0.00 0.00 0.00 89 1013.3
20260509064607 48 225 0.0 0.0 0.00 0.00 0.00 89 1013.3
20260509064106 48 225 0.0 0.0 0.00 0.00 0.00 89 1013.3
20260509063106 48 225 0.0 0.0 0.00 0.00 0.00 89 1013.6
20260509062606 48 225 0.0 0.0 0.00 0.00 0.00 89 1013.6